Time,TemperatureF,DewpointF,PressureIn,WindDirection,WindDirectionDegrees,WindSpeedMPH,WindSpeedGustMPH,Humidity,HourlyPrecipIn,Conditions,Clouds,dailyrainin,SoftwareType,DateUTC
2013-02-15 00:00:00,42.7,31.4,30.01,North,355,0.0,0.0,64,0.00,,BKN250,0.00,VWS V14.00,2013-02-15 06:00:00,
2013-02-15 00:05:00,42.6,31.3,30.01,North,355,0.0,0.0,64,0.00,,BKN250,0.00,VWS V14.00,2013-02-15 06:05:00,
2013-02-15 00:10:00,42.6,31.3,30.01,North,355,0.0,0.0,64,0.00,,BKN250,0.00,VWS V14.00,2013-02-15 06:10:00,
2013-02-15 00:15:00,42.5,30.8,30.00,North,355,0.0,1.0,63,0.00,,BKN250,0.00,VWS V14.00,2013-02-15 06:15:00,
2013-02-15 00:20:00,42.5,30.8,30.00,North,355,0.0,1.0,63,0.00,,BKN250,0.00,VWS V14.00,2013-02-15 06:20:00,
2013-02-15 00:25:00,42.5,30.8,30.01,North,355,0.0,1.0,63,0.00,,BKN250,0.00,VWS V14.00,2013-02-15 06:25:00,
2013-02-15 00:30:00,42.5,30.8,30.00,North,355,0.0,1.0,63,0.00,,BKN250,0.00,VWS V14.00,2013-02-15 06:30:00,
2013-02-15 00:35:00,42.5,30.8,30.01,North,355,0.0,0.0,63,0.00,,BKN250,0.00,VWS V14.00,2013-02-15 06:35:00,
2013-02-15 00:40:00,42.5,30.8,30.01,North,355,0.0,0.0,63,0.00,,BKN250,0.00,VWS V14.00,2013-02-15 06:40:00,
2013-02-15 00:45:00,42.5,30.4,30.01,North,355,0.0,0.0,62,0.00,,BKN250,0.00,VWS V14.00,2013-02-15 06:45:00,
2013-02-15 00:50:00,42.4,30.3,30.01,North,355,0.0,0.0,62,0.00,,BKN250,0.00,VWS V14.00,2013-02-15 06:50:00,
2013-02-15 00:55:00,42.4,30.3,30.01,North,355,0.0,0.0,62,0.00,,BKN250,0.00,VWS V14.00,2013-02-15 06:55:00,
2013-02-15 01:00:00,42.3,30.2,30.01,North,355,0.0,0.0,62,0.00,,BKN250,0.00,VWS V14.00,2013-02-15 07:00:00,
2013-02-15 01:05:00,42.3,30.2,30.01,North,355,0.0,0.0,62,0.00,,BKN250,0.00,VWS V14.00,2013-02-15 07:05:00,
2013-02-15 01:10:00,42.3,30.2,30.01,North,355,0.0,3.0,62,0.00,,BKN250,0.00,VWS V14.00,2013-02-15 07:10:00,
2013-02-15 01:15:00,42.3,30.2,30.02,WNW,302,2.0,5.0,62,0.00,,BKN250,0.00,VWS V14.00,2013-02-15 07:15:00,
2013-02-15 01:20:00,42.2,30.1,30.02,NNW,339,0.0,5.0,62,0.00,,BKN250,0.00,VWS V14.00,2013-02-15 07:20:00,
2013-02-15 01:25:00,42.2,29.7,30.02,NNW,339,0.0,5.0,61,0.00,,BKN250,0.00,VWS V14.00,2013-02-15 07:25:00,
2013-02-15 01:30:00,42.2,29.7,30.02,NNW,339,0.0,0.0,61,0.00,,BKN250,0.00,VWS V14.00,2013-02-15 07:30:00,
2013-02-15 01:35:00,42.2,29.7,30.02,NNW,334,1.0,6.0,61,0.00,,BKN085,0.00,VWS V14.00,2013-02-15 07:35:00,
2013-02-15 01:40:00,42.2,29.7,30.02,NNW,343,0.0,6.0,61,0.00,,BKN085,0.00,VWS V14.00,2013-02-15 07:40:00,
2013-02-15 01:45:00,42.2,29.7,30.02,NNW,343,0.0,6.0,61,0.00,,BKN085,0.00,VWS V14.00,2013-02-15 07:45:00,
2013-02-15 01:50:00,42.1,29.6,30.02,NNW,343,0.0,6.0,61,0.00,,BKN085,0.00,VWS V14.00,2013-02-15 07:50:00,
2013-02-15 01:55:00,42.1,30.0,30.02,NNW,343,0.0,6.0,62,0.00,,BKN085,0.00,VWS V14.00,2013-02-15 07:55:00,
2013-02-15 02:00:00,42.0,29.9,30.03,NW,316,0.0,0.0,62,0.00,,BKN085,0.00,VWS V14.00,2013-02-15 08:00:00,
2013-02-15 02:05:00,41.9,30.2,30.02,NW,305,0.0,3.0,63,0.00,,BKN085,0.00,VWS V14.00,2013-02-15 08:05:00,
2013-02-15 02:10:00,41.8,30.1,30.02,NNW,333,0.0,4.0,63,0.00,,BKN085,0.00,VWS V14.00,2013-02-15 08:10:00,
2013-02-15 02:15:00,41.7,30.0,30.03,North,352,1.0,5.0,63,0.00,,BKN085,0.00,VWS V14.00,2013-02-15 08:15:00,
2013-02-15 02:20:00,41.7,30.0,30.03,NNW,334,2.0,5.0,63,0.00,,BKN085,0.00,VWS V14.00,2013-02-15 08:20:00,
2013-02-15 02:25:00,41.6,30.0,30.03,NNW,345,3.0,5.0,63,0.00,,BKN085,0.00,VWS V14.00,2013-02-15 08:25:00,
2013-02-15 02:30:00,41.5,29.9,30.03,NNW,344,3.0,4.0,63,0.00,,BKN085,0.00,VWS V14.00,2013-02-15 08:30:00,
2013-02-15 02:35:00,41.4,29.8,30.03,NNW,339,3.0,5.0,63,0.00,,BKN085,0.00,VWS V14.00,2013-02-15 08:35:00,
2013-02-15 02:40:00,41.1,29.1,30.03,NNW,333,2.0,8.0,62,0.00,,BKN085,0.00,VWS V14.00,2013-02-15 08:40:00,
2013-02-15 02:45:00,40.9,28.5,30.03,North,355,1.0,8.0,61,0.00,,BKN085,0.00,VWS V14.00,2013-02-15 08:45:00,
2013-02-15 02:50:00,40.7,28.3,30.03,NNW,339,4.0,8.0,61,0.00,,BKN085,0.00,VWS V14.00,2013-02-15 08:50:00,
2013-02-15 02:55:00,40.5,28.1,30.04,NNW,346,7.0,9.0,61,0.00,,BKN085,0.00,VWS V14.00,2013-02-15 08:55:00,
2013-02-15 03:00:00,40.2,27.8,30.04,North,349,0.0,0.0,61,0.00,,BKN085,0.00,VWS V14.00,2013-02-15 09:00:00,
2013-02-15 03:05:00,39.9,27.6,30.04,NNW,335,7.0,7.0,61,0.00,,BKN095,0.00,VWS V14.00,2013-02-15 09:05:00,
2013-02-15 03:10:00,39.7,27.4,30.04,North,354,4.0,8.0,61,0.00,,BKN095,0.00,VWS V14.00,2013-02-15 09:10:00,
2013-02-15 03:15:00,39.5,27.6,30.04,WNW,303,2.0,8.0,62,0.00,,BKN095,0.00,VWS V14.00,2013-02-15 09:15:00,
2013-02-15 03:20:00,39.3,27.4,30.03,NNW,347,2.0,8.0,62,0.00,,BKN095,0.00,VWS V14.00,2013-02-15 09:20:00,
2013-02-15 03:25:00,39.1,27.2,30.04,NNW,347,4.0,8.0,62,0.00,,BKN095,0.00,VWS V14.00,2013-02-15 09:25:00,
2013-02-15 03:30:00,38.9,27.0,30.04,NNW,332,0.0,0.0,62,0.00,,BKN095,0.00,VWS V14.00,2013-02-15 09:30:00,
2013-02-15 03:35:00,38.7,27.2,30.04,NNW,345,9.0,9.0,63,0.00,,BKN200,0.00,VWS V14.00,2013-02-15 09:35:00,
2013-02-15 03:40:00,38.5,27.0,30.04,North,358,2.0,9.0,63,0.00,,BKN200,0.00,VWS V14.00,2013-02-15 09:40:00,
2013-02-15 03:45:00,38.3,27.2,30.04,NNW,338,1.0,9.0,64,0.00,,BKN200,0.00,VWS V14.00,2013-02-15 09:45:00,
2013-02-15 03:50:00,38.2,27.5,30.04,NNW,348,0.0,9.0,65,0.00,,BKN200,0.00,VWS V14.00,2013-02-15 09:50:00,
2013-02-15 03:55:00,38.0,27.3,30.05,North,351,4.0,9.0,65,0.00,,BKN200,0.00,VWS V14.00,2013-02-15 09:55:00,
2013-02-15 04:00:00,37.9,27.2,30.05,NNW,346,6.0,9.0,65,0.00,,BKN200,0.00,VWS V14.00,2013-02-15 10:00:00,
2013-02-15 04:05:00,37.8,27.5,30.05,NNW,347,4.0,7.0,66,0.00,,BKN200,0.00,VWS V14.00,2013-02-15 10:05:00,
2013-02-15 04:10:00,37.6,27.6,30.06,North,350,2.0,7.0,67,0.00,,BKN200,0.00,VWS V14.00,2013-02-15 10:10:00,
2013-02-15 04:15:00,37.3,27.4,30.06,North,353,7.0,8.0,67,0.00,,BKN200,0.00,VWS V14.00,2013-02-15 10:15:00,
2013-02-15 04:20:00,37.0,27.1,30.06,NNE,12,10.0,11.0,67,0.00,,BKN200,0.00,VWS V14.00,2013-02-15 10:20:00,
2013-02-15 04:25:00,36.7,27.1,30.06,North,352,3.0,11.0,68,0.00,,BKN200,0.00,VWS V14.00,2013-02-15 10:25:00,
2013-02-15 04:30:00,36.5,27.0,30.06,NNW,341,0.0,0.0,68,0.00,,BKN200,0.00,VWS V14.00,2013-02-15 10:30:00,
2013-02-15 04:35:00,36.2,27.0,30.07,North,0,0.0,4.0,69,0.00,,BKN200,0.00,VWS V14.00,2013-02-15 10:35:00,
2013-02-15 04:40:00,36.1,27.3,30.07,North,353,7.0,8.0,70,0.00,,BKN200,0.00,VWS V14.00,2013-02-15 10:40:00,
2013-02-15 04:45:00,35.8,27.0,30.08,North,8,4.0,11.0,70,0.00,,BKN200,0.00,VWS V14.00,2013-02-15 10:45:00,
2013-02-15 04:50:00,35.7,26.9,30.08,North,353,3.0,11.0,70,0.00,,BKN200,0.00,VWS V14.00,2013-02-15 10:50:00,
2013-02-15 04:55:00,35.6,27.1,30.08,NNW,334,1.0,11.0,71,0.00,,BKN200,0.00,VWS V14.00,2013-02-15 10:55:00,
2013-02-15 05:00:00,35.4,27.3,30.08,North,350,1.0,2.0,72,0.00,,BKN200,0.00,VWS V14.00,2013-02-15 11:00:00,
2013-02-15 05:05:00,35.2,27.4,30.08,NW,319,0.0,6.0,73,0.00,,BKN200,0.00,VWS V14.00,2013-02-15 11:05:00,
2013-02-15 05:10:00,35.0,27.2,30.09,NNW,337,4.0,8.0,73,0.00,,BKN200,0.00,VWS V14.00,2013-02-15 11:10:00,
2013-02-15 05:15:00,34.9,27.5,30.09,North,351,4.0,8.0,74,0.00,,BKN200,0.00,VWS V14.00,2013-02-15 11:15:00,
2013-02-15 05:20:00,34.7,27.6,30.09,NW,326,0.0,8.0,75,0.00,,BKN200,0.00,VWS V14.00,2013-02-15 11:20:00,
2013-02-15 05:25:00,34.7,27.6,30.09,North,350,0.0,8.0,75,0.00,,BKN200,0.00,VWS V14.00,2013-02-15 11:25:00,
2013-02-15 05:30:00,34.5,27.7,30.09,NNW,344,5.0,5.0,76,0.00,,BKN200,0.00,VWS V14.00,2013-02-15 11:30:00,
2013-02-15 05:35:00,34.5,28.0,30.09,North,356,0.0,6.0,77,0.00,,BKN120,0.00,VWS V14.00,2013-02-15 11:35:00,
2013-02-15 05:40:00,34.3,27.9,30.09,NNW,334,0.0,6.0,77,0.00,,BKN120,0.00,VWS V14.00,2013-02-15 11:40:00,
2013-02-15 05:45:00,34.2,27.8,30.10,North,358,1.0,6.0,77,0.00,,BKN120,0.00,VWS V14.00,2013-02-15 11:45:00,
2013-02-15 05:50:00,34.0,27.6,30.10,NW,325,0.0,6.0,77,0.00,,BKN120,0.00,VWS V14.00,2013-02-15 11:50:00,
2013-02-15 05:55:00,33.9,27.5,30.10,NW,325,0.0,6.0,77,0.00,,BKN120,0.00,VWS V14.00,2013-02-15 11:55:00,
2013-02-15 06:00:00,33.8,27.4,30.10,NNW,347,0.0,0.0,77,0.00,,BKN120,0.00,VWS V14.00,2013-02-15 12:00:00,
2013-02-15 06:05:00,33.6,27.2,30.10,NW,322,1.0,4.0,77,0.00,,BKN120,0.00,VWS V14.00,2013-02-15 12:05:00,
2013-02-15 06:10:00,33.5,27.1,30.11,NNW,342,3.0,4.0,77,0.00,,BKN120,0.00,VWS V14.00,2013-02-15 12:10:00,
2013-02-15 06:15:00,33.4,27.0,30.11,NNE,16,0.0,4.0,77,0.00,,BKN120,0.00,VWS V14.00,2013-02-15 12:15:00,
2013-02-15 06:20:00,33.2,27.1,30.11,North,355,4.0,6.0,78,0.00,,BKN120,0.00,VWS V14.00,2013-02-15 12:20:00,
2013-02-15 06:25:00,33.2,27.1,30.11,NNW,329,0.0,6.0,78,0.00,,BKN120,0.00,VWS V14.00,2013-02-15 12:25:00,
2013-02-15 06:30:00,33.2,27.4,30.11,North,352,3.0,3.0,79,0.00,,BKN120,0.00,VWS V14.00,2013-02-15 12:30:00,
2013-02-15 06:35:00,33.2,27.4,30.12,North,353,2.0,3.0,79,0.00,,SCT130,0.00,VWS V14.00,2013-02-15 12:35:00,
2013-02-15 06:40:00,33.2,27.4,30.12,North,352,4.0,4.0,79,0.00,,SCT130,0.00,VWS V14.00,2013-02-15 12:40:00,
2013-02-15 06:45:00,33.2,27.4,30.12,North,358,2.0,5.0,79,0.00,,SCT130,0.00,VWS V14.00,2013-02-15 12:45:00,
2013-02-15 06:50:00,33.3,27.5,30.13,NNW,346,3.0,6.0,79,0.00,,SCT130,0.00,VWS V14.00,2013-02-15 12:50:00,
2013-02-15 06:55:00,33.3,27.2,30.13,North,349,6.0,9.0,78,0.00,,SCT130,0.00,VWS V14.00,2013-02-15 12:55:00,
2013-02-15 07:00:00,33.3,27.2,30.13,NNW,336,2.0,4.0,78,0.00,,SCT130,0.00,VWS V14.00,2013-02-15 13:00:00,
2013-02-15 07:05:00,33.4,27.3,30.14,NNW,336,4.0,7.0,78,0.00,,SCT130,0.00,VWS V14.00,2013-02-15 13:05:00,
2013-02-15 07:10:00,33.3,27.2,30.14,NNW,339,7.0,9.0,78,0.00,,SCT130,0.00,VWS V14.00,2013-02-15 13:10:00,
2013-02-15 07:15:00,33.2,27.1,30.14,NW,323,3.0,11.0,78,0.00,,SCT130,0.00,VWS V14.00,2013-02-15 13:15:00,
2013-02-15 07:20:00,33.1,27.0,30.14,NNW,343,6.0,11.0,78,0.00,,SCT130,0.00,VWS V14.00,2013-02-15 13:20:00,
2013-02-15 07:25:00,33.0,26.9,30.15,NNW,342,2.0,11.0,78,0.00,,SCT130,0.00,VWS V14.00,2013-02-15 13:25:00,
2013-02-15 07:30:00,32.8,26.7,30.15,NNW,345,0.0,0.0,78,0.00,,SCT130,0.00,VWS V14.00,2013-02-15 13:30:00,
2013-02-15 07:35:00,32.7,26.3,30.15,North,349,6.0,6.0,77,0.00,,SCT130,0.00,VWS V14.00,2013-02-15 13:35:00,
2013-02-15 07:40:00,32.6,26.2,30.15,NNE,21,3.0,9.0,77,0.00,,SCT130,0.00,VWS V14.00,2013-02-15 13:40:00,
2013-02-15 07:45:00,32.3,25.9,30.16,NNW,342,5.0,11.0,77,0.00,,SCT130,0.00,VWS V14.00,2013-02-15 13:45:00,
2013-02-15 07:50:00,32.3,25.9,30.16,North,349,3.0,11.0,77,0.00,,SCT130,0.00,VWS V14.00,2013-02-15 13:50:00,
2013-02-15 07:55:00,32.3,25.9,30.16,North,352,6.0,11.0,77,0.00,,SCT130,0.00,VWS V14.00,2013-02-15 13:55:00,
2013-02-15 08:00:00,32.3,25.9,30.17,NNW,344,4.0,5.0,77,0.00,,SCT130,0.00,VWS V14.00,2013-02-15 14:00:00,
2013-02-15 08:05:00,32.3,25.6,30.17,NNW,329,1.0,10.0,76,0.00,,BKN200,0.00,VWS V14.00,2013-02-15 14:05:00,
2013-02-15 08:10:00,32.0,25.3,30.17,NNW,329,4.0,14.0,76,0.00,,BKN200,0.00,VWS V14.00,2013-02-15 14:10:00,
2013-02-15 08:15:00,31.7,24.4,30.18,NNW,337,2.0,14.0,74,0.00,,BKN200,0.00,VWS V14.00,2013-02-15 14:15:00,
2013-02-15 08:20:00,31.3,23.3,30.17,NNW,348,7.0,14.0,72,0.00,,BKN200,0.00,VWS V14.00,2013-02-15 14:20:00,
2013-02-15 08:25:00,30.9,22.6,30.18,NNW,329,8.0,14.0,71,0.00,,BKN200,0.00,VWS V14.00,2013-02-15 14:25:00,
2013-02-15 08:30:00,30.9,22.3,30.18,NNW,336,7.0,7.0,70,0.00,,BKN200,0.00,VWS V14.00,2013-02-15 14:30:00,
2013-02-15 08:35:00,30.8,21.1,30.18,North,358,6.0,12.0,67,0.00,,BKN200,0.00,VWS V14.00,2013-02-15 14:35:00,
2013-02-15 08:40:00,30.9,21.2,30.18,North,350,0.0,12.0,67,0.00,,BKN200,0.00,VWS V14.00,2013-02-15 14:40:00,
2013-02-15 08:45:00,31.1,21.1,30.18,North,351,10.0,12.0,66,0.00,,BKN200,0.00,VWS V14.00,2013-02-15 14:45:00,
2013-02-15 08:50:00,31.0,21.3,30.18,NW,324,5.0,12.0,67,0.00,,BKN200,0.00,VWS V14.00,2013-02-15 14:50:00,
2013-02-15 08:55:00,30.9,21.2,30.19,North,354,2.0,13.0,67,0.00,,BKN200,0.00,VWS V14.00,2013-02-15 14:55:00,
2013-02-15 09:00:00,31.2,21.9,30.18,NNW,342,6.0,6.0,68,0.00,,BKN200,0.00,VWS V14.00,2013-02-15 15:00:00,
2013-02-15 09:05:00,31.4,21.7,30.18,NW,310,3.0,9.0,67,0.00,,BKN200,0.00,VWS V14.00,2013-02-15 15:05:00,
2013-02-15 09:10:00,31.8,22.5,30.19,North,350,7.0,14.0,68,0.00,,BKN200,0.00,VWS V14.00,2013-02-15 15:10:00,
2013-02-15 09:15:00,31.6,22.3,30.19,North,353,7.0,15.0,68,0.00,,BKN200,0.00,VWS V14.00,2013-02-15 15:15:00,
2013-02-15 09:20:00,31.7,22.7,30.20,North,349,4.0,15.0,69,0.00,,BKN200,0.00,VWS V14.00,2013-02-15 15:20:00,
2013-02-15 09:25:00,31.7,22.7,30.19,NNE,15,4.0,15.0,69,0.00,,BKN200,0.00,VWS V14.00,2013-02-15 15:25:00,
2013-02-15 09:30:00,31.6,22.3,30.20,North,356,2.0,3.0,68,0.00,,BKN200,0.00,VWS V14.00,2013-02-15 15:30:00,
2013-02-15 09:35:00,31.8,22.5,30.20,NNW,327,5.0,11.0,68,0.00,,SCT100,0.00,VWS V14.00,2013-02-15 15:35:00,
2013-02-15 09:40:00,31.9,21.9,30.20,NW,307,8.0,11.0,66,0.00,,SCT100,0.00,VWS V14.00,2013-02-15 15:40:00,
2013-02-15 09:45:00,31.7,21.3,30.20,NNW,343,6.0,13.0,65,0.00,,SCT100,0.00,VWS V14.00,2013-02-15 15:45:00,
2013-02-15 09:50:00,31.8,21.4,30.20,NNW,330,2.0,13.0,65,0.00,,SCT100,0.00,VWS V14.00,2013-02-15 15:50:00,
2013-02-15 09:55:00,32.2,21.0,30.20,North,357,0.0,13.0,63,0.00,,SCT100,0.00,VWS V14.00,2013-02-15 15:55:00,
2013-02-15 10:00:00,32.0,20.1,30.20,NW,326,6.0,13.0,61,0.00,,SCT100,0.00,VWS V14.00,2013-02-15 16:00:00,
2013-02-15 10:05:00,32.1,20.2,30.20,NNW,339,4.0,12.0,61,0.00,,SCT100,0.00,VWS V14.00,2013-02-15 16:05:00,
2013-02-15 10:10:00,32.4,20.1,30.20,North,355,3.0,12.0,60,0.00,,SCT100,0.00,VWS V14.00,2013-02-15 16:10:00,
2013-02-15 10:15:00,32.5,20.2,30.20,NNW,347,7.0,14.0,60,0.00,,SCT100,0.00,VWS V14.00,2013-02-15 16:15:00,
2013-02-15 10:20:00,32.5,19.8,30.20,NNW,338,1.0,14.0,59,0.00,,SCT100,0.00,VWS V14.00,2013-02-15 16:20:00,
2013-02-15 10:25:00,33.0,20.6,30.20,NNW,332,2.0,14.0,60,0.00,,SCT100,0.00,VWS V14.00,2013-02-15 16:25:00,
2013-02-15 10:30:00,33.0,19.4,30.20,NNW,342,7.0,8.0,57,0.00,,SCT100,0.00,VWS V14.00,2013-02-15 16:30:00,
2013-02-15 10:35:00,32.7,19.6,30.20,North,351,7.0,11.0,58,0.00,,SCT100,0.00,VWS V14.00,2013-02-15 16:35:00,
2013-02-15 10:40:00,33.1,20.7,30.20,NW,307,5.0,11.0,60,0.00,,SCT100,0.00,VWS V14.00,2013-02-15 16:40:00,
2013-02-15 10:45:00,33.2,21.2,30.20,NW,306,1.0,11.0,61,0.00,,SCT100,0.00,VWS V14.00,2013-02-15 16:45:00,
2013-02-15 10:50:00,33.3,20.9,30.21,North,355,6.0,12.0,60,0.00,,SCT100,0.00,VWS V14.00,2013-02-15 16:50:00,
2013-02-15 10:55:00,33.2,19.6,30.21,NNW,332,3.0,12.0,57,0.00,,SCT100,0.00,VWS V14.00,2013-02-15 16:55:00,
2013-02-15 11:00:00,33.2,19.6,30.21,NNW,345,5.0,6.0,57,0.00,,SCT100,0.00,VWS V14.00,2013-02-15 17:00:00,
2013-02-15 11:05:00,33.3,19.7,30.20,NNW,340,6.0,12.0,57,0.00,,SCT100,0.00,VWS V14.00,2013-02-15 17:05:00,
2013-02-15 11:10:00,33.5,19.9,30.20,NNW,345,9.0,12.0,57,0.00,,SCT100,0.00,VWS V14.00,2013-02-15 17:10:00,
2013-02-15 11:15:00,33.6,19.6,30.20,NNW,329,3.0,13.0,56,0.00,,SCT100,0.00,VWS V14.00,2013-02-15 17:15:00,
2013-02-15 11:20:00,33.8,19.4,30.21,NW,316,4.0,13.0,55,0.00,,SCT100,0.00,VWS V14.00,2013-02-15 17:20:00,
2013-02-15 11:25:00,34.1,18.8,30.20,North,7,5.0,13.0,53,0.00,,SCT100,0.00,VWS V14.00,2013-02-15 17:25:00,
2013-02-15 11:30:00,34.1,17.9,30.21,North,352,8.0,12.0,51,0.00,,SCT100,0.00,VWS V14.00,2013-02-15 17:30:00,
2013-02-15 11:35:00,34.0,18.2,30.20,North,4,4.0,12.0,52,0.00,,SCT100,0.00,VWS V14.00,2013-02-15 17:35:00,
2013-02-15 11:40:00,34.4,18.2,30.20,North,353,4.0,12.0,51,0.00,,SCT100,0.00,VWS V14.00,2013-02-15 17:40:00,
2013-02-15 11:45:00,34.2,17.5,30.20,North,358,5.0,13.0,50,0.00,,SCT100,0.00,VWS V14.00,2013-02-15 17:45:00,
2013-02-15 11:50:00,34.7,18.0,30.20,NNW,344,4.0,13.0,50,0.00,,SCT100,0.00,VWS V14.00,2013-02-15 17:50:00,
2013-02-15 11:55:00,34.8,17.1,30.19,North,350,8.0,14.0,48,0.00,,SCT100,0.00,VWS V14.00,2013-02-15 17:55:00,
2013-02-15 12:00:00,34.7,16.5,30.19,NNW,330,5.0,7.0,47,0.00,,SCT100,0.00,VWS V14.00,2013-02-15 18:00:00,
2013-02-15 12:05:00,34.9,16.7,30.19,North,8,6.0,11.0,47,0.00,,SCT100,0.00,VWS V14.00,2013-02-15 18:05:00,
2013-02-15 12:10:00,35.2,17.0,30.18,NNW,331,4.0,11.0,47,0.00,,SCT100,0.00,VWS V14.00,2013-02-15 18:10:00,
2013-02-15 12:15:00,35.2,16.0,30.19,North,351,12.0,17.0,45,0.00,,SCT100,0.00,VWS V14.00,2013-02-15 18:15:00,
2013-02-15 12:20:00,35.1,15.9,30.19,North,358,4.0,17.0,45,0.00,,SCT100,0.00,VWS V14.00,2013-02-15 18:20:00,
2013-02-15 12:25:00,35.6,16.4,30.18,North,5,10.0,17.0,45,0.00,,SCT100,0.00,VWS V14.00,2013-02-15 18:25:00,
2013-02-15 12:30:00,35.4,16.2,30.18,NNW,340,8.0,10.0,45,0.00,,SCT100,0.00,VWS V14.00,2013-02-15 18:30:00,
2013-02-15 12:35:00,35.5,16.3,30.18,NNE,17,6.0,13.0,45,0.00,,SCT100,0.00,VWS V14.00,2013-02-15 18:35:00,
2013-02-15 12:40:00,35.6,16.4,30.19,North,356,2.0,14.0,45,0.00,,SCT100,0.00,VWS V14.00,2013-02-15 18:40:00,
2013-02-15 12:45:00,35.7,16.5,30.18,North,357,7.0,14.0,45,0.00,,SCT100,0.00,VWS V14.00,2013-02-15 18:45:00,
2013-02-15 12:50:00,35.8,16.5,30.18,NNW,339,7.0,14.0,45,0.00,,SCT100,0.00,VWS V14.00,2013-02-15 18:50:00,
2013-02-15 12:55:00,35.6,16.9,30.18,North,352,5.0,14.0,46,0.00,,SCT100,0.00,VWS V14.00,2013-02-15 18:55:00,
2013-02-15 13:00:00,35.8,16.0,30.18,North,10,6.0,10.0,44,0.00,,SCT100,0.00,VWS V14.00,2013-02-15 19:00:00,
2013-02-15 13:05:00,36.1,16.3,30.18,NNE,14,10.0,14.0,44,0.00,,SCT100,0.00,VWS V14.00,2013-02-15 19:05:00,
2013-02-15 13:10:00,36.1,15.2,30.17,North,4,3.0,14.0,42,0.00,,SCT100,0.00,VWS V14.00,2013-02-15 19:10:00,
2013-02-15 13:15:00,36.3,16.5,30.17,North,352,9.0,14.0,44,0.00,,SCT100,0.00,VWS V14.00,2013-02-15 19:15:00,
2013-02-15 13:20:00,36.0,15.7,30.17,North,2,4.0,14.0,43,0.00,,SCT100,0.00,VWS V14.00,2013-02-15 19:20:00,
2013-02-15 13:25:00,36.4,16.6,30.17,North,358,8.0,14.0,44,0.00,,SCT100,0.00,VWS V14.00,2013-02-15 19:25:00,
2013-02-15 13:30:00,36.3,16.0,30.17,North,354,2.0,6.0,43,0.00,,SCT100,0.00,VWS V14.00,2013-02-15 19:30:00,
2013-02-15 13:35:00,36.1,15.8,30.17,NW,308,0.0,8.0,43,0.00,,CLR,0.00,VWS V14.00,2013-02-15 19:35:00,
2013-02-15 13:40:00,36.6,16.2,30.17,North,10,7.0,12.0,43,0.00,,CLR,0.00,VWS V14.00,2013-02-15 19:40:00,
2013-02-15 13:45:00,36.7,15.8,30.17,NNW,339,8.0,12.0,42,0.00,,CLR,0.00,VWS V14.00,2013-02-15 19:45:00,
2013-02-15 13:50:00,36.6,15.7,30.17,NNW,348,5.0,12.0,42,0.00,,CLR,0.00,VWS V14.00,2013-02-15 19:50:00,
2013-02-15 13:55:00,36.8,15.9,30.17,NW,307,5.0,12.0,42,0.00,,CLR,0.00,VWS V14.00,2013-02-15 19:55:00,
2013-02-15 14:00:00,37.1,15.6,30.17,North,1,2.0,3.0,41,0.00,,CLR,0.00,VWS V14.00,2013-02-15 20:00:00,
2013-02-15 14:05:00,37.1,15.6,30.17,North,5,6.0,10.0,41,0.00,,CLR,0.00,VWS V14.00,2013-02-15 20:05:00,
2013-02-15 14:10:00,36.9,16.0,30.17,North,4,6.0,10.0,42,0.00,,CLR,0.00,VWS V14.00,2013-02-15 20:10:00,
2013-02-15 14:15:00,37.2,16.2,30.17,NNW,348,1.0,10.0,42,0.00,,CLR,0.00,VWS V14.00,2013-02-15 20:15:00,
2013-02-15 14:20:00,37.3,15.8,30.17,North,0,5.0,10.0,41,0.00,,CLR,0.00,VWS V14.00,2013-02-15 20:20:00,
2013-02-15 14:25:00,37.3,15.2,30.17,North,11,3.0,11.0,40,0.00,,CLR,0.00,VWS V14.00,2013-02-15 20:25:00,
2013-02-15 14:30:00,37.5,16.0,30.17,NNW,329,6.0,7.0,41,0.00,,CLR,0.00,VWS V14.00,2013-02-15 20:30:00,
2013-02-15 14:35:00,37.8,15.7,30.17,North,9,5.0,10.0,40,0.00,,FEW250,0.00,VWS V14.00,2013-02-15 20:35:00,
2013-02-15 14:40:00,37.7,15.6,30.16,NNW,336,0.0,10.0,40,0.00,,FEW250,0.00,VWS V14.00,2013-02-15 20:40:00,
2013-02-15 14:45:00,37.6,14.9,30.16,NW,320,6.0,10.0,39,0.00,,FEW250,0.00,VWS V14.00,2013-02-15 20:45:00,
2013-02-15 14:50:00,37.5,15.4,30.16,North,6,9.0,11.0,40,0.00,,FEW250,0.00,VWS V14.00,2013-02-15 20:50:00,
2013-02-15 14:55:00,37.6,15.5,30.16,NNW,332,1.0,11.0,40,0.00,,FEW250,0.00,VWS V14.00,2013-02-15 20:55:00,
2013-02-15 15:00:00,37.6,15.5,30.16,NNW,329,2.0,4.0,40,0.00,,FEW250,0.00,VWS V14.00,2013-02-15 21:00:00,
2013-02-15 15:05:00,37.9,14.6,30.16,NNW,348,6.0,11.0,38,0.00,,FEW250,0.00,VWS V14.00,2013-02-15 21:05:00,
2013-02-15 15:10:00,38.0,14.7,30.17,NNW,347,3.0,11.0,38,0.00,,FEW250,0.00,VWS V14.00,2013-02-15 21:10:00,
2013-02-15 15:15:00,37.9,15.2,30.17,North,5,3.0,11.0,39,0.00,,FEW250,0.00,VWS V14.00,2013-02-15 21:15:00,
2013-02-15 15:20:00,37.7,14.4,30.17,North,349,7.0,11.0,38,0.00,,FEW250,0.00,VWS V14.00,2013-02-15 21:20:00,
2013-02-15 15:25:00,37.5,14.2,30.17,NW,305,5.0,11.0,38,0.00,,FEW250,0.00,VWS V14.00,2013-02-15 21:25:00,
2013-02-15 15:30:00,37.7,14.4,30.17,North,349,3.0,3.0,38,0.00,,FEW250,0.00,VWS V14.00,2013-02-15 21:30:00,
2013-02-15 15:35:00,37.6,14.3,30.17,NNW,335,2.0,14.0,38,0.00,,SCT250,0.00,VWS V14.00,2013-02-15 21:35:00,
2013-02-15 15:40:00,37.7,14.4,30.17,North,354,6.0,14.0,38,0.00,,SCT250,0.00,VWS V14.00,2013-02-15 21:40:00,
2013-02-15 15:45:00,37.8,14.5,30.17,NE,36,6.0,14.0,38,0.00,,SCT250,0.00,VWS V14.00,2013-02-15 21:45:00,
2013-02-15 15:50:00,37.9,14.6,30.17,North,5,6.0,14.0,38,0.00,,SCT250,0.00,VWS V14.00,2013-02-15 21:50:00,
2013-02-15 15:55:00,37.8,14.5,30.17,North,355,3.0,14.0,38,0.00,,SCT250,0.00,VWS V14.00,2013-02-15 21:55:00,
2013-02-15 16:00:00,38.0,15.3,30.17,NNW,344,7.0,8.0,39,0.00,,SCT250,0.00,VWS V14.00,2013-02-15 22:00:00,
2013-02-15 16:05:00,38.0,15.8,30.17,NNW,344,3.0,9.0,40,0.00,,SCT250,0.00,VWS V14.00,2013-02-15 22:05:00,
2013-02-15 16:10:00,37.9,15.2,30.17,North,349,3.0,9.0,39,0.00,,SCT250,0.00,VWS V14.00,2013-02-15 22:10:00,
2013-02-15 16:15:00,37.8,15.1,30.17,NW,315,0.0,9.0,39,0.00,,SCT250,0.00,VWS V14.00,2013-02-15 22:15:00,
2013-02-15 16:20:00,38.0,15.3,30.17,NNW,344,0.0,9.0,39,0.00,,SCT250,0.00,VWS V14.00,2013-02-15 22:20:00,
2013-02-15 16:25:00,37.9,14.6,30.17,North,4,7.0,9.0,38,0.00,,SCT250,0.00,VWS V14.00,2013-02-15 22:25:00,
2013-02-15 16:30:00,37.7,14.4,30.17,NNW,342,1.0,2.0,38,0.00,,SCT250,0.00,VWS V14.00,2013-02-15 22:30:00,
2013-02-15 16:35:00,37.6,14.3,30.17,NNW,340,4.0,4.0,38,0.00,,SCT250,0.00,VWS V14.00,2013-02-15 22:35:00,
2013-02-15 16:40:00,37.3,14.0,30.17,North,354,4.0,8.0,38,0.00,,SCT250,0.00,VWS V14.00,2013-02-15 22:40:00,
2013-02-15 16:45:00,37.3,14.0,30.17,NW,317,0.0,8.0,38,0.00,,SCT250,0.00,VWS V14.00,2013-02-15 22:45:00,
2013-02-15 16:50:00,37.5,14.2,30.17,NNW,340,0.0,8.0,38,0.00,,SCT250,0.00,VWS V14.00,2013-02-15 22:50:00,
2013-02-15 16:55:00,37.4,13.5,30.16,NNW,345,0.0,8.0,37,0.00,,SCT250,0.00,VWS V14.00,2013-02-15 22:55:00,
2013-02-15 17:00:00,37.3,14.0,30.16,NNW,346,0.0,0.0,38,0.00,,SCT250,0.00,VWS V14.00,2013-02-15 23:00:00,
2013-02-15 17:05:00,37.2,13.9,30.17,North,359,0.0,3.0,38,0.00,,SCT250,0.00,VWS V14.00,2013-02-15 23:05:00,
2013-02-15 17:10:00,37.0,13.2,30.17,NNW,347,0.0,10.0,37,0.00,,SCT250,0.00,VWS V14.00,2013-02-15 23:10:00,
2013-02-15 17:15:00,36.9,13.7,30.17,North,356,1.0,10.0,38,0.00,,SCT250,0.00,VWS V14.00,2013-02-15 23:15:00,
2013-02-15 17:20:00,36.7,13.5,30.17,North,352,4.0,10.0,38,0.00,,SCT250,0.00,VWS V14.00,2013-02-15 23:20:00,
2013-02-15 17:25:00,36.6,14.0,30.17,NNW,344,4.0,10.0,39,0.00,,SCT250,0.00,VWS V14.00,2013-02-15 23:25:00,
2013-02-15 17:30:00,36.5,13.9,30.17,NNW,348,1.0,1.0,39,0.00,,SCT250,0.00,VWS V14.00,2013-02-15 23:30:00,
2013-02-15 17:35:00,36.4,14.4,30.17,NNW,346,0.0,9.0,40,0.00,,SCT250,0.00,VWS V14.00,2013-02-15 23:35:00,
2013-02-15 17:40:00,36.3,14.3,30.17,NNW,340,2.0,9.0,40,0.00,,SCT250,0.00,VWS V14.00,2013-02-15 23:40:00,
2013-02-15 17:45:00,36.2,14.2,30.17,NNW,338,0.0,9.0,40,0.00,,SCT250,0.00,VWS V14.00,2013-02-15 23:45:00,
2013-02-15 17:50:00,36.1,14.7,30.17,NW,319,4.0,9.0,41,0.00,,SCT250,0.00,VWS V14.00,2013-02-15 23:50:00,
2013-02-15 17:55:00,36.0,14.6,30.17,North,350,1.0,9.0,41,0.00,,SCT250,0.00,VWS V14.00,2013-02-15 23:55:00,
2013-02-15 18:00:00,35.9,14.5,30.17,North,349,4.0,4.0,41,0.00,,SCT250,0.00,VWS V14.00,2013-02-16 00:00:00,
2013-02-15 18:05:00,35.8,14.4,30.17,NNW,337,0.0,6.0,41,0.00,,SCT250,0.00,VWS V14.00,2013-02-16 00:05:00,
2013-02-15 18:10:00,35.7,14.3,30.17,North,354,1.0,6.0,41,0.00,,SCT250,0.00,VWS V14.00,2013-02-16 00:10:00,
2013-02-15 18:15:00,35.6,14.8,30.17,NNW,346,0.0,6.0,42,0.00,,SCT250,0.00,VWS V14.00,2013-02-16 00:15:00,
2013-02-15 18:20:00,35.5,14.7,30.18,NNW,347,3.0,6.0,42,0.00,,SCT250,0.00,VWS V14.00,2013-02-16 00:20:00,
2013-02-15 18:25:00,35.4,14.6,30.18,North,0,0.0,6.0,42,0.00,,SCT250,0.00,VWS V14.00,2013-02-16 00:25:00,
2013-02-15 18:30:00,35.3,15.1,30.18,NNW,339,0.0,3.0,43,0.00,,SCT250,0.00,VWS V14.00,2013-02-16 00:30:00,
2013-02-15 18:35:00,35.2,15.0,30.18,NNW,339,0.0,4.0,43,0.00,,SCT250,0.00,VWS V14.00,2013-02-16 00:35:00,
2013-02-15 18:40:00,35.1,14.9,30.18,North,350,5.0,5.0,43,0.00,,SCT250,0.00,VWS V14.00,2013-02-16 00:40:00,
2013-02-15 18:45:00,35.0,14.8,30.18,North,0,0.0,5.0,43,0.00,,SCT250,0.00,VWS V14.00,2013-02-16 00:45:00,
2013-02-15 18:50:00,34.9,15.2,30.18,North,354,0.0,5.0,44,0.00,,SCT250,0.00,VWS V14.00,2013-02-16 00:50:00,
2013-02-15 18:55:00,34.8,15.1,30.17,North,354,0.0,5.0,44,0.00,,SCT250,0.00,VWS V14.00,2013-02-16 00:55:00,
2013-02-15 19:00:00,34.6,14.9,30.18,North,354,0.0,0.0,44,0.00,,SCT250,0.00,VWS V14.00,2013-02-16 01:00:00,
2013-02-15 19:05:00,34.4,15.3,30.18,North,354,0.0,0.0,45,0.00,,SCT250,0.00,VWS V14.00,2013-02-16 01:05:00,
2013-02-15 19:10:00,34.3,15.2,30.17,North,354,0.0,0.0,45,0.00,,SCT250,0.00,VWS V14.00,2013-02-16 01:10:00,
2013-02-15 19:15:00,34.2,15.6,30.17,North,354,0.0,1.0,46,0.00,,SCT250,0.00,VWS V14.00,2013-02-16 01:15:00,
2013-02-15 19:20:00,34.0,15.4,30.17,North,354,2.0,2.0,46,0.00,,SCT250,0.00,VWS V14.00,2013-02-16 01:20:00,
2013-02-15 19:25:00,34.0,15.4,30.17,North,354,0.0,2.0,46,0.00,,SCT250,0.00,VWS V14.00,2013-02-16 01:25:00,
2013-02-15 19:30:00,33.9,15.3,30.17,North,354,0.0,0.0,46,0.00,,SCT250,0.00,VWS V14.00,2013-02-16 01:30:00,
2013-02-15 19:35:00,33.8,15.2,30.17,North,354,0.0,0.0,46,0.00,,SCT250,0.00,VWS V14.00,2013-02-16 01:35:00,
2013-02-15 19:40:00,33.7,15.1,30.17,North,354,0.0,0.0,46,0.00,,SCT250,0.00,VWS V14.00,2013-02-16 01:40:00,
2013-02-15 19:45:00,33.6,15.0,30.17,North,354,0.0,1.0,46,0.00,,SCT250,0.00,VWS V14.00,2013-02-16 01:45:00,
2013-02-15 19:50:00,33.5,15.4,30.17,North,354,0.0,1.0,47,0.00,,SCT250,0.00,VWS V14.00,2013-02-16 01:50:00,
2013-02-15 19:55:00,33.4,15.4,30.17,North,354,0.0,1.0,47,0.00,,SCT250,0.00,VWS V14.00,2013-02-16 01:55:00,
2013-02-15 20:00:00,33.3,15.3,30.17,North,354,0.0,0.0,47,0.00,,SCT250,0.00,VWS V14.00,2013-02-16 02:00:00,
2013-02-15 20:05:00,33.2,15.2,30.17,North,354,0.0,2.0,47,0.00,,SCT250,0.00,VWS V14.00,2013-02-16 02:05:00,
2013-02-15 20:10:00,33.1,15.1,30.17,North,354,0.0,2.0,47,0.00,,SCT250,0.00,VWS V14.00,2013-02-16 02:10:00,
2013-02-15 20:15:00,33.1,15.6,30.17,North,354,0.0,2.0,48,0.00,,SCT250,0.00,VWS V14.00,2013-02-16 02:15:00,
2013-02-15 20:20:00,33.0,15.5,30.17,North,354,0.0,2.0,48,0.00,,SCT250,0.00,VWS V14.00,2013-02-16 02:20:00,
2013-02-15 20:25:00,32.9,15.4,30.17,North,354,0.0,2.0,48,0.00,,SCT250,0.00,VWS V14.00,2013-02-16 02:25:00,
2013-02-15 20:30:00,32.8,15.3,30.17,North,354,0.0,0.0,48,0.00,,SCT250,0.00,VWS V14.00,2013-02-16 02:30:00,
2013-02-15 20:35:00,32.7,15.2,30.17,North,354,0.0,0.0,48,0.00,,BKN060,0.00,VWS V14.00,2013-02-16 02:35:00,
2013-02-15 20:40:00,32.6,15.1,30.17,North,354,0.0,0.0,48,0.00,,BKN060,0.00,VWS V14.00,2013-02-16 02:40:00,
2013-02-15 20:45:00,32.5,15.5,30.17,North,354,0.0,0.0,49,0.00,,BKN060,0.00,VWS V14.00,2013-02-16 02:45:00,
2013-02-15 20:50:00,32.5,15.5,30.17,North,354,0.0,0.0,49,0.00,,BKN060,0.00,VWS V14.00,2013-02-16 02:50:00,
2013-02-15 20:55:00,32.4,15.4,30.17,North,354,0.0,0.0,49,0.00,,BKN060,0.00,VWS V14.00,2013-02-16 02:55:00,
2013-02-15 21:00:00,32.3,15.3,30.17,North,354,0.0,0.0,49,0.00,,BKN060,0.00,VWS V14.00,2013-02-16 03:00:00,
2013-02-15 21:05:00,32.3,15.3,30.17,North,354,0.0,0.0,49,0.00,,BKN060,0.00,VWS V14.00,2013-02-16 03:05:00,
2013-02-15 21:10:00,32.2,15.2,30.17,North,354,0.0,0.0,49,0.00,,BKN060,0.00,VWS V14.00,2013-02-16 03:10:00,
2013-02-15 21:15:00,32.1,15.6,30.17,North,354,0.0,0.0,50,0.00,,BKN060,0.00,VWS V14.00,2013-02-16 03:15:00,
2013-02-15 21:20:00,32.0,15.5,30.17,North,354,0.0,0.0,50,0.00,,BKN060,0.00,VWS V14.00,2013-02-16 03:20:00,
2013-02-15 21:25:00,31.9,15.8,30.17,North,354,0.0,0.0,51,0.00,,BKN060,0.00,VWS V14.00,2013-02-16 03:25:00,
2013-02-15 21:30:00,31.8,15.8,30.17,North,354,0.0,0.0,51,0.00,,BKN060,0.00,VWS V14.00,2013-02-16 03:30:00,
2013-02-15 21:35:00,31.8,15.8,30.17,North,354,0.0,0.0,51,0.00,,BKN060,0.00,VWS V14.00,2013-02-16 03:35:00,
2013-02-15 21:40:00,31.9,15.8,30.17,NNW,341,3.0,5.0,51,0.00,,BKN060,0.00,VWS V14.00,2013-02-16 03:40:00,
2013-02-15 21:45:00,32.2,15.7,30.17,NW,321,1.0,7.0,50,0.00,,BKN060,0.00,VWS V14.00,2013-02-16 03:45:00,
2013-02-15 21:50:00,32.4,15.9,30.17,North,359,0.0,7.0,50,0.00,,BKN060,0.00,VWS V14.00,2013-02-16 03:50:00,
2013-02-15 21:55:00,32.4,15.9,30.17,WNW,303,2.0,7.0,50,0.00,,BKN060,0.00,VWS V14.00,2013-02-16 03:55:00,
2013-02-15 22:00:00,32.4,15.9,30.17,WNW,299,2.0,3.0,50,0.00,,BKN060,0.00,VWS V14.00,2013-02-16 04:00:00,
2013-02-15 22:05:00,32.4,15.9,30.17,NNW,337,1.0,5.0,50,0.00,,BKN060,0.00,VWS V14.00,2013-02-16 04:05:00,
2013-02-15 22:10:00,32.4,15.9,30.17,NNW,333,0.0,5.0,50,0.00,,BKN060,0.00,VWS V14.00,2013-02-16 04:10:00,
2013-02-15 22:15:00,32.4,15.9,30.17,North,359,2.0,5.0,50,0.00,,BKN060,0.00,VWS V14.00,2013-02-16 04:15:00,
2013-02-15 22:20:00,32.5,16.4,30.16,NNW,343,6.0,7.0,51,0.00,,BKN060,0.00,VWS V14.00,2013-02-16 04:20:00,
2013-02-15 22:25:00,32.5,16.4,30.17,NNW,342,0.0,7.0,51,0.00,,BKN060,0.00,VWS V14.00,2013-02-16 04:25:00,
2013-02-15 22:30:00,32.5,16.4,30.16,NNW,341,4.0,4.0,51,0.00,,BKN060,0.00,VWS V14.00,2013-02-16 04:30:00,
2013-02-15 22:35:00,32.5,16.4,30.17,NNW,345,2.0,9.0,51,0.00,,BKN200,0.00,VWS V14.00,2013-02-16 04:35:00,
2013-02-15 22:40:00,32.3,16.2,30.17,NNW,344,4.0,9.0,51,0.00,,BKN200,0.00,VWS V14.00,2013-02-16 04:40:00,
2013-02-15 22:45:00,32.2,16.6,30.17,NNW,341,2.0,9.0,52,0.00,,BKN200,0.00,VWS V14.00,2013-02-16 04:45:00,
2013-02-15 22:50:00,32.0,16.4,30.17,North,353,4.0,9.0,52,0.00,,BKN200,0.00,VWS V14.00,2013-02-16 04:50:00,
2013-02-15 22:55:00,31.9,16.3,30.17,North,354,3.0,11.0,52,0.00,,BKN200,0.00,VWS V14.00,2013-02-16 04:55:00,
2013-02-15 23:00:00,31.8,16.6,30.17,North,1,4.0,11.0,53,0.00,,BKN200,0.00,VWS V14.00,2013-02-16 05:00:00,
2013-02-15 23:05:00,31.6,16.9,30.17,NNW,336,6.0,11.0,54,0.00,,BKN200,0.00,VWS V14.00,2013-02-16 05:05:00,
2013-02-15 23:10:00,31.4,17.1,30.16,NNW,340,5.0,11.0,55,0.00,,BKN200,0.00,VWS V14.00,2013-02-16 05:10:00,
2013-02-15 23:15:00,31.2,16.9,30.16,NNW,342,8.0,11.0,55,0.00,,BKN200,0.00,VWS V14.00,2013-02-16 05:15:00,
2013-02-15 23:20:00,31.0,17.2,30.16,North,351,2.0,11.0,56,0.00,,BKN200,0.00,VWS V14.00,2013-02-16 05:20:00,
2013-02-15 23:23:00,31.0,17.2,30.16,NNW,333,1.0,11.0,56,0.00,,BKN200,0.00,VWS V14.00,2013-02-16 05:23:00,
2013-02-15 23:28:00,30.9,17.1,30.16,North,350,4.0,11.0,56,0.00,,BKN200,0.00,VWS V14.00,2013-02-16 05:28:00,
2013-02-15 23:33:00,30.8,17.0,30.16,North,357,4.0,12.0,56,0.00,,BKN200,0.00,VWS V14.00,2013-02-16 05:33:00,
2013-02-15 23:38:00,30.7,16.9,30.16,North,1,5.0,12.0,56,0.00,,BKN200,0.00,VWS V14.00,2013-02-16 05:38:00,
2013-02-15 23:43:00,30.5,16.7,30.16,North,353,6.0,12.0,56,0.00,,BKN200,0.00,VWS V14.00,2013-02-16 05:43:00,
2013-02-15 23:48:00,30.4,16.6,30.16,North,0,2.0,12.0,56,0.00,,BKN200,0.00,VWS V14.00,2013-02-16 05:48:00,
2013-02-15 23:53:00,30.1,16.3,30.16,North,7,0.0,12.0,56,0.00,,BKN200,0.00,VWS V14.00,2013-02-16 05:53:00,
2013-02-15 23:58:00,29.8,16.0,30.16,North,1,2.0,12.0,56,0.00,,BKN200,0.00,VWS V14.00,2013-02-16 05:58:00,